Weather History for Tacoma Narrows, WA

Change the Weather History Date:

Friday, March 29, 2013

  Actual Average Record
Temperature  
Mean Temperature 54 °F -  
Max Temperature 63 °F 50 °F 75 °F (2004)
Min Temperature 45 °F 39 °F 33 °F (2008)
Degree Days  
Heating Degree Days 12    
Growing Degree Days 4 (Base 50)    
Moisture  
Dew Point 43 °F    
Average Humidity 74    
Maximum Humidity 93    
Minimum Humidity 43    
Precipitation  
Precipitation 0.00 in - - ()
Sea Level Pressure  
Sea Level Pressure 30.22 in    
Wind  
Wind Speed 2 mph (NNE)    
Max Wind Speed 13 mph    
Max Gust Speed 20 mph    
Visibility 10 miles    
Events      
Averages and records for this station are not official NWS values.
T = Trace of Precipitation, MM = Missing Value Source: NWS Daily Summary

Daily Weather History Graph

Daily Weather History Graph

Search for Another Location

Airport:

Trip Planner

Search our weather history database for the weather conditions in past years. The results will help you decide how hot, cold, wet, or windy it might be!

Date:

Astronomy

Mar. 29, 2013 Rise Set
Actual Time 6:54 AM PDT 7:36 PM PDT
Civil Twilight 6:23 AM PDT 8:07 PM PDT
Nautical Twilight 5:47 AM PDT 8:43 PM PDT
Astronomical Twilight 5:08 AM PDT 9:22 PM PDT
Moon 10:57 PM PDT (3/29) 7:55 AM PDT (3/29)
Length of Visible Light 13h 43m
Length of Day
12h 41m
Waning Gibbous, 93% of the Moon is Illuminated
Mar 29
Waning Gibbous
Apr 2
Last Quarter
Apr 10
New
Apr 18
First Quarter
Apr 25
Full

Hourly Weather History & Observations

Time (PDT) Temp. Windchill Dew Point Humidity Pressure Visibility Wind Dir Wind Speed Gust Speed Precip Events Conditions
12:53 AM 48.9 °F - 45.0 °F 86% 30.16 in 10.0 mi Calm Calm - 0.00 in   Mostly Cloudy
1:53 AM 48.0 °F - 44.1 °F 86% 30.17 in 10.0 mi Calm Calm - N/A   Overcast
2:53 AM 46.9 °F - 44.1 °F 90% 30.17 in 10.0 mi Calm Calm - N/A   Mostly Cloudy
3:53 AM 46.9 °F - 44.1 °F 90% 30.19 in 10.0 mi Calm Calm - N/A   Overcast
4:53 AM 45.0 °F - 43.0 °F 93% 30.20 in 9.0 mi Calm Calm - N/A   Overcast
5:45 AM 46.4 °F - 44.6 °F 93% 30.20 in 10.0 mi Calm Calm - N/A   Overcast
5:53 AM 46.9 °F - 44.1 °F 90% 30.20 in 10.0 mi Calm Calm - N/A   Overcast
6:53 AM 46.9 °F - 44.1 °F 90% 30.22 in 10.0 mi Calm Calm - N/A   Overcast
7:53 AM 46.0 °F - 44.1 °F 93% 30.24 in 8.0 mi Calm Calm - N/A   Overcast
8:41 AM 46.4 °F 44.3 °F 44.6 °F 93% 30.24 in 9.0 mi NNW 4.6 mph - N/A   Overcast
8:49 AM 46.4 °F 43.5 °F 44.6 °F 93% 30.24 in 8.0 mi North 5.8 mph - N/A   Overcast
8:53 AM 48.0 °F - 45.0 °F 89% 30.25 in 9.0 mi North 4.6 mph - N/A   Overcast
9:01 AM 48.2 °F - 44.6 °F 87% 30.24 in 10.0 mi NNE 4.6 mph - N/A   Overcast
9:53 AM 48.9 °F - 44.1 °F 83% 30.25 in 10.0 mi Variable 3.5 mph - N/A   Overcast
10:53 AM 52.0 °F - 45.0 °F 77% 30.26 in 10.0 mi Calm Calm - N/A   Overcast
11:53 AM 55.0 °F - 46.0 °F 72% 30.26 in 10.0 mi Calm Calm - N/A   Mostly Cloudy
12:53 PM 57.9 °F - 46.9 °F 67% 30.25 in 10.0 mi Variable 3.5 mph - N/A   Partly Cloudy
1:53 PM 57.0 °F - 45.0 °F 64% 30.24 in 10.0 mi Calm Calm - N/A   Mostly Cloudy
2:53 PM 61.0 °F - 44.1 °F 54% 30.22 in 10.0 mi Calm Calm - N/A   Clear
3:53 PM 62.1 °F - 43.0 °F 50% 30.21 in 10.0 mi East 6.9 mph - N/A   Partly Cloudy
4:53 PM 62.1 °F - 41.0 °F 46% 30.21 in 10.0 mi NNE 3.5 mph - N/A   Clear
5:53 PM 62.1 °F - 39.0 °F 43% 30.21 in 10.0 mi North 6.9 mph - N/A   Clear
6:53 PM 60.1 °F - 41.0 °F 49% 30.21 in 10.0 mi North 9.2 mph - N/A   Clear
7:53 PM 57.0 °F - 39.9 °F 53% 30.21 in 10.0 mi North 12.7 mph - N/A   Clear
8:53 PM 54.0 °F - 42.1 °F 64% 30.22 in 10.0 mi NNE 9.2 mph - N/A   Clear
9:53 PM 53.1 °F - 41.0 °F 64% 30.23 in 10.0 mi NNE 10.4 mph - N/A   Clear
10:53 PM 53.1 °F - 39.9 °F 61% 30.24 in 10.0 mi North 11.5 mph 19.6 mph N/A   Clear
11:53 PM 51.1 °F - 39.9 °F 66% 30.24 in 10.0 mi NE 3.5 mph - N/A   Clear